EW5655 Weather Reports


Display with metric or nautical units.
time (UTC)temp
F
wind
direction
speed
MPH
gust
MPH
rain 1hr
in
rain 24hr
in
rain mn
in
humidity
%
barometer
mb
20260504011034 74 159 2.0 6.0 0.00 0.00 0.00 36 1014.7
20260504010534 74 159 4.0 6.0 0.00 0.00 0.00 36 1014.8
20260504010033 74 147 0.0 4.0 0.00 0.00 0.00 36 1014.8
20260504005532 74 144 0.0 6.0 0.00 0.00 0.00 36 1015.0
20260504005034 74 137 1.0 6.0 0.00 0.00 0.00 35 1014.9
20260504004534 74 152 1.0 5.0 0.00 0.00 0.00 36 1014.9
20260504004031 74 158 2.0 5.0 0.00 0.00 0.00 35 1015.0
20260504003531 74 165 2.0 8.0 0.00 0.00 0.00 34 1015.1
20260504003030 75 133 4.0 8.0 0.00 0.00 0.00 35 1015.1
20260504002530 75 165 3.0 8.0 0.00 0.00 0.00 35 1015.1
20260504002030 75 181 4.0 8.0 0.00 0.00 0.00 35 1015.2
20260504001532 75 155 3.0 10.0 0.00 0.00 0.00 35 1015.1
20260504001033 75 177 5.0 11.0 0.00 0.00 0.00 35 1015.2
20260504000529 75 142 6.0 11.0 0.00 0.00 0.00 34 1015.1
20260504000028 75 157 4.0 8.0 0.00 0.00 0.00 35 1015.2
20260503235528 75 180 4.0 8.0 0.00 0.00 0.00 34 1015.2
20260503235028 75 144 2.0 9.0 0.00 0.00 0.00 35 1015.3
20260503234529 75 161 5.0 13.0 0.00 0.00 0.00 34 1015.4
20260503234028 75 128 5.0 13.0 0.00 0.00 0.00 34 1015.2
20260503233528 75 181 6.0 13.0 0.00 0.00 0.00 34 1015.2
20260503233028 75 167 4.0 11.0 0.00 0.00 0.00 35 1015.2
20260503232527 75 166 5.0 11.0 0.00 0.00 0.00 35 1015.2
20260503232026 75 146 4.0 13.0 0.00 0.00 0.00 34 1015.4
20260503231525 75 127 5.0 13.0 0.00 0.00 0.00 35 1015.5
20260503231026 75 134 6.0 10.0 0.00 0.00 0.00 34 1015.6
20260503230524 75 194 5.0 9.0 0.00 0.00 0.00 35 1015.6
20260503230024 75 145 6.0 11.0 0.00 0.00 0.00 35 1015.6
20260503225526 74 117 4.0 11.0 0.00 0.00 0.00 35 1015.7
20260503225025 74 126 5.0 8.0 0.00 0.00 0.00 35 1015.7
20260503224522 74 161 4.0 8.0 0.00 0.00 0.00 35 1015.9
20260503224020 74 156 5.0 9.0 0.00 0.00 0.00 35 1016.0
20260503223520 74 181 2.0 8.0 0.00 0.00 0.00 35 1016.0
20260503223020 74 151 4.0 10.0 0.00 0.00 0.00 35 1016.1
20260503222518 74 153 4.0 10.0 0.00 0.00 0.00 35 1016.2
20260503222017 74 125 5.0 8.0 0.00 0.00 0.00 35 1016.4
20260503221516 74 128 4.0 8.0 0.00 0.00 0.00 36 1016.5
20260503221015 73 153 1.0 7.0 0.00 0.00 0.00 36 1016.6
20260503220518 74 215 4.0 7.0 0.00 0.00 0.00 36 1016.6
20260503220015 73 174 2.0 7.0 0.00 0.00 0.00 36 1016.6
20260503215514 73 176 4.0 10.0 0.00 0.00 0.00 36 1016.6
20260503215012 73 143 5.0 10.0 0.00 0.00 0.00 36 1016.7
20260503214532 73 125 2.0 9.0 0.00 0.00 0.00 37 1016.9
20260503214010 73 136 5.0 9.0 0.00 0.00 0.00 36 1017.1
20260503213610 73 204 2.0 8.0 0.00 0.00 0.00 36 1017.1
20260503213009 73 229 4.0 10.0 0.00 0.00 0.00 36 1017.2
20260503212510 73 165 5.0 10.0 0.00 0.00 0.00 36 1017.4
20260503212007 73 156 4.0 10.0 0.00 0.00 0.00 36 1017.5
20260503211505 73 115 4.0 10.0 0.00 0.00 0.00 36 1017.6
20260503211005 73 113 5.0 11.0 0.00 0.00 0.00 36 1017.8
20260503210506 73 128 5.0 11.0 0.00 0.00 0.00 36 1017.8
20260503210005 73 166 4.0 8.0 0.00 0.00 0.00 36 1017.8
20260503205504 73 166 3.0 10.0 0.00 0.00 0.00 37 1017.8
20260503205002 73 200 5.0 12.0 0.00 0.00 0.00 37 1018.1
20260503204601 73 99 7.0 12.0 0.00 0.00 0.00 37 1018.2
20260503204100 73 178 7.0 12.0 0.00 0.00 0.00 37 1018.3
20260503203559 73 199 5.0 10.0 0.00 0.00 0.00 37 1018.4
20260503203057 72 142 5.0 9.0 0.00 0.00 0.00 36 1018.5
20260503202557 71 176 5.0 9.0 0.00 0.00 0.00 38 1018.7
20260503202059 72 302 3.0 12.0 0.00 0.00 0.00 36 1018.8
20260503201555 72 125 6.0 10.0 0.00 0.00 0.00 37 1018.8
20260503201053 72 186 5.0 9.0 0.00 0.00 0.00 38 1018.9
20260503200553 71 244 5.0 10.0 0.00 0.00 0.00 38 1018.9
20260503200100 71 161 5.0 11.0 0.00 0.00 0.00 38 1019.0
20260503195551 71 178 6.0 11.0 0.00 0.00 0.00 38 1019.1
20260503195051 71 170 4.0 10.0 0.00 0.00 0.00 38 1019.1
20260503194601 71 148 6.0 12.0 0.00 0.00 0.00 37 1019.1
20260503194050 71 128 3.0 13.0 0.00 0.00 0.00 38 1019.2
20260503193549 71 182 6.0 13.0 0.00 0.00 0.00 38 1019.4
20260503193058 71 190 3.0 15.0 0.00 0.00 0.00 36 1019.4
20260503192548 71 159 4.0 15.0 0.00 0.00 0.00 36 1019.4
20260503192047 71 202 5.0 10.0 0.00 0.00 0.00 37 1019.3
20260503191549 71 220 4.0 10.0 0.00 0.00 0.00 38 1019.4
20260503191045 71 169 4.0 8.0 0.00 0.00 0.00 38 1019.5
20260503190545 70 163 4.0 9.0 0.00 0.00 0.00 38 1019.6
20260503190048 70 184 3.0 8.0 0.00 0.00 0.00 39 1019.6
20260503185543 70 133 6.0 9.0 0.00 0.00 0.00 38 1019.6
20260503185044 70 228 5.0 12.0 0.00 0.00 0.00 38 1019.6
20260503184557 70 205 5.0 12.0 0.00 0.00 0.00 37 1019.6
20260503184043 70 152 6.0 9.0 0.00 0.00 0.00 38 1019.6
20260503183541 70 138 5.0 9.0 0.00 0.00 0.00 36 1019.7
20260503183043 70 161 4.0 10.0 0.00 0.00 0.00 39 1019.6
20260503182541 70 131 5.0 11.0 0.00 0.00 0.00 38 1019.8
20260503182040 70 120 6.0 11.0 0.00 0.00 0.00 40 1019.9
20260503181557 69 222 6.0 10.0 0.00 0.00 0.00 39 1019.9
20260503181039 70 190 6.0 15.0 0.00 0.00 0.00 39 1020.1
20260503180539 70 138 6.0 15.0 0.00 0.00 0.00 39 1020.4
20260503180049 70 152 6.0 14.0 0.00 0.00 0.00 39 1020.4
20260503175536 70 165 6.0 13.0 0.00 0.00 0.00 39 1020.4
20260503175035 69 178 5.0 11.0 0.00 0.00 0.00 40 1020.2
20260503174545 69 170 6.0 11.0 0.00 0.00 0.00 40 1020.2
20260503174035 69 145 4.0 11.0 0.00 0.00 0.00 41 1020.4
20260503173535 68 167 3.0 8.0 0.00 0.00 0.00 40 1020.4
20260503173046 69 157 3.0 8.0 0.00 0.00 0.00 41 1020.5
20260503172535 69 187 3.0 8.0 0.00 0.00 0.00 41 1020.6
20260503172033 69 150 5.0 9.0 0.00 0.00 0.00 43 1020.7
20260503171533 67 184 1.0 5.0 0.00 0.00 0.00 48 1020.7
20260503171033 66 136 0.0 8.0 0.00 0.00 0.00 49 1020.6
20260503170532 67 248 4.0 8.0 0.00 0.00 0.00 48 1020.8
20260503151010 59 27 1.0 4.0 0.00 0.00 0.00 64 1021.1
20260503150512 58 27 1.0 4.0 0.00 0.00 0.00 64 1021.1
20260503131046 51 31 0.0 2.0 0.00 0.01 0.00 79 1020.8
20260503130550 51 31 0.0 5.0 0.00 0.01 0.00 78 1020.6
20260503110532 50 111 0.0 1.0 0.00 0.01 0.00 84 1020.3
20260503081534 52 134 0.0 0.0 0.00 0.11 0.00 82 1021.1
20260503081015 53 134 0.0 1.0 0.00 0.11 0.00 82 1021.0
20260503080515 53 134 0.0 2.0 0.00 0.11 0.00 81 1021.0
20260503072516 53 134 0.0 0.0 0.00 0.11 0.00 78 1021.5
20260503072011 53 134 0.0 0.0 0.00 0.11 0.00 77 1021.5
20260503071509 54 134 0.0 0.0 0.00 0.11 0.00 76 1021.5
20260503071009 54 134 0.0 2.0 0.00 0.11 0.00 74 1021.6
20260503070508 54 134 0.0 2.0 0.00 0.11 0.00 75 1021.4
20260503055100 56 7 0.0 3.0 0.00 0.11 0.11 69 1021.0
20260503054558 56 7 1.0 4.0 0.00 0.11 0.11 69 1020.9
20260503054056 57 7 0.0 1.0 0.00 0.11 0.11 68 1020.9
20260503053556 57 7 0.0 2.0 0.00 0.11 0.11 68 1020.9
20260503053057 57 7 0.0 4.0 0.00 0.11 0.11 66 1020.9
20260503052556 57 7 1.0 4.0 0.00 0.11 0.11 66 1020.9
20260503052058 57 7 0.0 5.0 0.00 0.11 0.11 66 1021.0
20260503051558 57 7 2.0 5.0 0.00 0.11 0.11 66 1021.0
20260503051055 57 7 0.0 1.0 0.00 0.11 0.11 68 1021.1
20260503050555 57 7 0.0 1.0 0.00 0.11 0.11 65 1021.1
20260503050056 58 7 0.0 2.0 0.00 0.11 0.11 64 1021.1
20260503045555 58 7 0.0 2.0 0.00 0.11 0.11 63 1021.0
20260503045056 58 7 0.0 2.0 0.00 0.11 0.11 63 1021.0
20260503044607 58 7 0.0 5.0 0.00 0.11 0.11 63 1020.9
20260503044056 59 7 0.0 6.0 0.00 0.11 0.11 61 1020.8
20260503043554 59 358 4.0 6.0 0.00 0.11 0.11 63 1020.8
20260503043058 59 15 2.0 4.0 0.00 0.11 0.11 65 1020.8
20260503042554 58 58 1.0 2.0 0.00 0.11 0.11 64 1020.8
20260503042054 58 58 0.0 2.0 0.00 0.11 0.11 64 1020.7
20260503041554 59 58 0.0 2.0 0.00 0.11 0.11 64 1020.8
20260503041056 59 58 1.0 2.0 0.00 0.11 0.11 65 1020.8
20260503040553 59 58 0.0 4.0 0.00 0.11 0.11 65 1020.8
20260503035554 59 58 0.0 2.0 0.00 0.11 0.11 67 1020.8
20260503035053 58 58 0.0 0.0 0.00 0.11 0.11 66 1020.9
20260503034601 59 58 0.0 0.0 0.00 0.11 0.11 66 1020.9
20260503034053 59 58 0.0 2.0 0.00 0.11 0.11 65 1020.9
20260503033556 59 58 0.0 2.0 0.00 0.11 0.11 66 1020.8
20260503033055 59 58 0.0 2.0 0.00 0.11 0.11 65 1020.8
20260503032554 59 58 0.0 2.0 0.00 0.11 0.11 64 1020.8
20260503032052 59 58 0.0 2.0 0.00 0.11 0.11 63 1020.7
20260503031552 60 58 0.0 2.0 0.00 0.11 0.11 62 1020.7
20260503031052 60 58 0.0 2.0 0.00 0.11 0.11 61 1020.7
20260503030551 60 58 0.0 2.0 0.00 0.11 0.11 60 1020.6
20260503030121 60 58 0.0 2.0 0.00 0.11 0.11 59 1020.6
20260503025551 60 58 0.0 2.0 0.00 0.12 0.11 59 1020.6
20260503025053 61 58 0.0 2.0 0.00 0.12 0.11 57 1020.5
20260503024551 61 58 0.0 5.0 0.00 0.12 0.11 56 1020.4
20260503024051 61 61 0.0 5.0 0.00 0.12 0.11 54 1020.3
20260503023553 62 55 1.0 4.0 0.00 0.12 0.11 53 1020.3
20260503023051 62 53 1.0 4.0 0.00 0.12 0.11 53 1020.2
20260503022550 62 42 1.0 6.0 0.00 0.12 0.11 52 1020.0
20260503022050 62 61 1.0 6.0 0.00 0.12 0.11 51 1020.0
20260503021559 63 56 2.0 4.0 0.00 0.12 0.11 50 1020.0
20260503021049 63 53 1.0 5.0 0.00 0.12 0.11 50 1020.0
20260503020549 63 35 1.0 5.0 0.00 0.12 0.11 48 1020.1
20260503020049 64 15 1.0 5.0 0.00 0.12 0.11 47 1020.1
20260503015548 64 1 0.0 4.0 0.00 0.28 0.11 47 1020.1
20260503015048 64 1 1.0 5.0 0.00 0.28 0.11 46 1020.1
20260503014602 64 1 2.0 5.0 0.00 0.28 0.11 46 1020.0
20260503014048 64 1 0.0 4.0 0.00 0.28 0.11 47 1020.0
20260503013548 64 1 2.0 4.0 0.00 0.28 0.11 46 1020.0
20260503013051 64 38 1.0 4.0 0.00 0.28 0.11 46 1019.9
20260503012548 64 38 0.0 2.0 0.00 0.28 0.11 45 1019.8
20260503012047 65 38 1.0 4.0 0.00 0.28 0.11 44 1019.8
20260503011554 65 79 0.0 3.0 0.00 0.28 0.11 46 1019.8